Weather in Palu

Indonesia     0°50′24″N   119°53′25″E
temp.,
°C
wind,
m/s
gust,
m/s
humid.,
%
clouds,
%
prec.,
mm/h
press.,
hPa
HPBL,
m
14 august, sun
sun1423:00+20nne009614 0.1 101216
02:00+20nne009886 0.1 101116
05:00+19wsw009642 0.0 101116
08:00+22nne018887 0.0 1012126
11:00+29wnw115727 0.0 10111208
14:00+26nw128230 3.4 1009669
17:00+23w129596 6.7 1010239
20:00+21sw129998 12.2 1012108
15 august, mon
mon1523:00+20sw009771 0.8 101221
02:00+19sw0096100 0.8 101117
05:00+19w009585 0.0 101118
08:00+22ene0188100 0.0 101295
11:00+28ene1159100 0.1 10111027
14:00+26ene1175100 1.5 1009783
17:00+23ne1194100 2.0 100934
20:00+20e129899 7.6 101245
16 august, tue
tue1623:00+20e129893 2.3 101358
02:00+20ene1197100 2.3 101123
05:00+20ene1197100 0.1 101136
08:00+21ene2396100 0.2 1013139
11:00+24ene1281100 0.9 1012379
14:00+23ene1288100 3.3 1010204
17:00+20e2398100 2.6 1011106
20:00+20e2399100 5.2 1014185
17 august, wed
wed1723:00+19e2499100 2.6 1015202
02:00+19e1299100 4.6 101379
05:00+19e2398100 0.1 101278
08:00+20e129699 0.1 101389
11:00+26ene216448 0.1 1012900
14:00+26ene1168100 0.5 1010968
17:00+21e2393100 0.9 1011257
20:00+20e2496100 0.9 1012146
18 august, thu
thu1823:00+20e1198100 0.0 101342
02:00+19e219899 0.0 101141
05:00+19e119723 0.0 101030
08:00+23e12817 0.0 1012376
11:00+28ene115745 0.0 10111201
14:00+27ne126088 0.0 1008907
17:00+23ene127748 0.0 1009275
20:00+20e228983 0.0 101162